[[{"header":{"parameterUnit":"m.s-1","parameterCategory":1,"la1":30.2991,"la2":30.254,"lo1":-89.0895,"lo2":-89.0444,"dy":0.0017,"dx":0.0017,"nx":28,"ny":28,"refTime":"2025-07-16T21:00:00:Z","depth":0,"parameterNumber":2,"parameterNumberName":"U-component_of_WINDS"},"data":[0,0,0,0,0,0,0,0,0,0,0,0,0,0,0,0,0,0,0,0,0,0,0,0,0,0,0,0,0,0,0,0,0,0,0,0,0,0,0,0,0,0,0,0,0,0,0,0,0,0,0,0,0,0,0,0,0,0,0.079,0.0789,0,0.066,0.0658,0.0657,0.052,0.0518,0.0516,0.0514,0.0381,0.0379,0.0377,0,0,0,0,0,0,0,0,0,0,0,0,0,0.092,0.0919,0.079,0.0789,0.0787,0.066,0.0658,0.0657,0.052,0.0518,0.0516,0.0513,0.0381,0.0379,0.0377,0,0,0,0,0,0,0,0,0,0,0,0,0,0.0835,0.0918,0.0791,0.0704,0.0695,0.0661,0.0658,0.0656,0.0521,0.0518,0.0515,0.0512,0.0382,0.0379,0.0377,0.0418,0,0,0.0369,0.0368,0,0,0,0,0,0,0,0,0.084,0.083,0.0718,0.071,0.0699,0.0603,0.0655,0.0576,0.0521,0.0587,0.0514,0.0511,0.0457,0.0448,0.043,0.0412,0.0406,0.0368,0.0367,0.0366,0.0365,0,0,0,0,0,0,0,0.0846,0.0835,0.0739,0.0717,0.0705,0.0671,0.0656,0.064,0.054,0.0581,0.0571,0.0557,0.0451,0.0433,0.0426,0.0404,0.0369,0.0366,0.0365,0.0363,0.0412,0.0415,0,0,0,0,0,0,0.0865,0.0841,0.0743,0.0735,0.0764,0.0671,0.0654,0.0637,0.0539,0.0522,0.056,0.0551,0.0439,0.0429,0.0421,0.0462,0.0366,0.0363,0.0362,0.0409,0.0413,0.0416,0,0,0,0,0,0,0.0868,0.0857,0.0748,0.0785,0.0768,0.0672,0.0654,0.0636,0.0617,0.0523,0.0505,0.0559,0.0436,0.0424,0.0419,0.0455,0.0362,0.036,0.0406,0.041,0.0414,0.0546,0,0,0,0,0,0,0.0873,0.0859,0.0874,0.0786,0.0767,0.075,0.0656,0.0635,0.0613,0.0601,0.0518,0.0501,0.0433,0.0424,0.0417,0.045,0.0358,0.0402,0.0408,0.0413,0.0538,0.0554,0.0568,0,0,0,0,0,0.0878,0.0917,0.0876,0.0865,0.0783,0.0752,0.0741,0.0662,0.0617,0.063,0.057,0.0504,0.0453,0.0425,0.0415,0.0448,0.0399,0.0406,0.0412,0.0531,0.0551,0.0567,0,0,0,0,0,0,0.1012,0.0903,0.0857,0.0869,0.0821,0.0729,0.0744,0.0685,0.0649,0.0639,0.0541,0.0524,0.0531,0.0488,0.046,0.0483,0.0417,0.0422,0.051,0.0528,0.0543,0.0553,0.0355,0,0,0,0,0,0.1043,0.1026,0.0932,0.0952,0.093,0.0842,0.0825,0.0768,0.0714,0.0693,0.0632,0.0583,0.0555,0.0539,0.0508,0.0531,0.051,0.0549,0.0564,0.0577,0.0582,0.059,0.0606,0.0437,0.0437,0.0437,0,0,0.1106,0.1045,0.1041,0.0977,0.0933,0.0918,0.0826,0.0814,0.0802,0.0691,0.0683,0.0637,0.0575,0.0584,0.0585,0.0549,0.0624,0.0585,0.0596,0.0594,0.0598,0.0615,0.0629,0.0441,0.0441,0.044,0,0,0.1214,0.1167,0.1177,0.1135,0.107,0.1011,0.1014,0.0931,0.0896,0.0886,0.0803,0.0787,0.0741,0.07,0.0674,0.0767,0.0705,0.0759,0.0838,0.0847,0.0861,0.0872,0.0905,0.0918,0.0765,0.0765,0.0766,0,0.1302,0.1276,0.119,0.1184,0.1158,0.1057,0.1067,0.103,0.0959,0.0943,0.0905,0.0845,0.0796,0.0794,0.0817,0.0799,0.0798,0.0769,0.0866,0.0876,0.0885,0.0916,0.0929,0.0772,0.0772,0.0771,0.077,0,0.1387,0.137,0.1387,0.132,0.1296,0.1298,0.1212,0.1199,0.1143,0.1089,0.108,0.1017,0.0972,0.0967,0.0914,0.0958,0.0937,0.0884,0.0815,0.091,0.0937,0.0948,0.0783,0.078,0.0778,0.0776,0,0,0.1576,0.1462,0.1469,0.1437,0.1358,0.1343,0.1341,0.1296,0.1286,0.124,0.1235,0.1199,0.1149,0.1119,0.1059,0.1067,0.1144,0.1012,0.1009,0.1039,0.1189,0.123,0.1245,0.1103,0.1104,0.1106,0.1194,0,0.167,0.1659,0.1582,0.1593,0.1577,0.1481,0.1478,0.1429,0.1378,0.1356,0.1298,0.1274,0.121,0.1191,0.1195,0.1135,0.1173,0.1127,0.1097,0.1097,0.1116,0.1259,0.1302,0.1388,0.1204,0.1205,0.1207,0,0.1779,0.1739,0.175,0.167,0.166,0.1659,0.1612,0.1593,0.1535,0.1497,0.1464,0.1396,0.1387,0.1324,0.131,0.128,0.1263,0.1232,0.1233,0.1227,0.1158,0.1257,0.1413,0.1427,0.1222,0.1221,0.122,0,0.1916,0.1865,0.1864,0.184,0.1747,0.1749,0.171,0.1649,0.1628,0.1587,0.1572,0.1531,0.1508,0.1478,0.1401,0.1361,0.1396,0.1325,0.1364,0.1366,0.1375,0.1376,0.1532,0.1365,0.1365,0.1365,0.1364,0,0.2029,0.2039,0.1925,0.1924,0.1932,0.1843,0.1853,0.1805,0.1752,0.174,0.1655,0.1645,0.1545,0.1524,0.1464,0.1462,0.1452,0.1421,0.1405,0.1428,0.1433,0.1416,0.1408,0.1368,0.1367,0.1366,0.1366,0,0.2183,0.2107,0.21,0.2013,0.1991,0.2001,0.1925,0.1921,0.1864,0.1851,0.1842,0.1753,0.1725,0.1645,0.1596,0.1555,0.157,0.154,0.159,0.1579,0.1622,0.1619,0.1773,0.1788,0.1613,0.1615,0.1616,0,0.2261,0.2266,0.2179,0.2165,0.213,0.2109,0.2087,0.1999,0.1979,0.1914,0.1918,0.1882,0.1849,0.1807,0.1738,0.1699,0.1668,0.1724,0.1661,0.1685,0.1668,0.1669,0.1669,0.1738,0.174,0.1742,0.1744,0,0.2406,0.2368,0.2339,0.2298,0.2273,0.2236,0.2194,0.2187,0.2089,0.2071,0.2041,0.2015,0.1965,0.193,0.1881,0.184,0.1776,0.1764,0.1771,0.1795,0.1824,0.1809,0.1627,0.1761,0.1759,0.1758,0.1757,0.1757,0.2523,0.2524,0.2463,0.2433,0.2393,0.2355,0.2347,0.229,0.2263,0.2215,0.2165,0.214,0.2082,0.2009,0.1973,0.1952,0.1918,0.1928,0.193,0.1934,0.1945,0.1828,0.1943,0.1942,0.1941,0.1941,0.194,0,0.2664,0.262,0.2594,0.2538,0.2515,0.2457,0.2407,0.2392,0.2371,0.2322,0.2292,0.2257,0.2223,0.2151,0.211,0.2107,0.2077,0.21,0.2099,0.2091,0.1978,0.1976,0.2125,0.2125,0.2125,0.2125,0.2125,0.2125,0.2734,0.2732,0.2687,0.2663,0.2618,0.2594,0.2571,0.2536,0.2496,0.2461,0.2433,0.2386,0.2328,0.2282,0.2249,0.2228,0.2217,0.225,0.222,0.2116,0.2099,0.2082,0.208,0.2248,0.2249,0.2334,0.2335,0.2336]},{"header":{"parameterUnit":"m.s-1","parameterCategory":1,"la1":30.2991,"la2":30.254,"lo1":-89.0895,"lo2":-89.0444,"dy":0.0017,"dx":0.0017,"nx":28,"ny":28,"refTime":"2025-07-16T21:00:00:Z","depth":0,"parameterNumber":3,"parameterNumberName":"V-component_of_WINDS"},"data":[0,0,0,0,0,0,0,0,0,0,0,0,0,0,0,0,0,0,0,0,0,0,0,0,0,0,0,0,0,0,0,0,0,0,0,0,0,0,0,0,0,0,0,0,0,0,0,0,0,0,0,0,0,0,0,0,0,0,3.6157,3.6159,0,3.633,3.6332,3.6334,3.6339,3.6337,3.6335,3.6333,3.6509,3.6516,3.6522,0,0,0,0,0,0,0,0,0,0,0,0,0,3.5832,3.5838,3.6157,3.6159,3.6162,3.633,3.6332,3.6334,3.6339,3.6337,3.6334,3.6332,3.6507,3.6515,3.6523,0,0,0,0,0,0,0,0,0,0,0,0,0,3.5985,3.584,3.6157,3.6184,3.6188,3.6329,3.6332,3.6335,3.634,3.6336,3.6333,3.633,3.6505,3.6514,3.6524,3.6649,0,0,3.6555,3.6559,0,0,0,0,0,0,0,0,3.5977,3.5997,3.6178,3.6183,3.6188,3.631,3.6282,3.644,3.634,3.6282,3.6332,3.6329,3.6445,3.646,3.6499,3.6657,3.6665,3.6556,3.6562,3.6566,3.6569,0,0,0,0,0,0,0,3.5966,3.599,3.6226,3.6181,3.6186,3.6188,3.6206,3.6312,3.6379,3.6287,3.6288,3.6308,3.6447,3.649,3.6504,3.6668,3.6555,3.6564,3.657,3.6574,3.6937,3.694,0,0,0,0,0,0,3.595,3.5981,3.622,3.6231,3.6072,3.6196,3.6217,3.6274,3.6378,3.6391,3.6311,3.6308,3.6474,3.6492,3.651,3.6663,3.6566,3.6575,3.6581,3.6933,3.6938,3.6941,0,0,0,0,0,0,3.5943,3.5971,3.6213,3.6106,3.6137,3.6205,3.6269,3.6279,3.6321,3.6396,3.6408,3.6342,3.6472,3.6496,3.6614,3.6669,3.658,3.6589,3.6929,3.6934,3.6939,3.6969,0,0,0,0,0,0,3.5934,3.5969,3.6017,3.6107,3.6143,3.6315,3.6272,3.6284,3.6338,3.6336,3.6428,3.6441,3.6472,3.6599,3.6624,3.6681,3.6597,3.6924,3.6931,3.6938,3.6964,3.6975,3.6985,0,0,0,0,0,3.5922,3.6019,3.6019,3.6048,3.6205,3.6318,3.6338,3.6372,3.6343,3.6391,3.644,3.6438,3.6659,3.6612,3.664,3.67,3.6921,3.6929,3.6937,3.6959,3.6973,3.6984,0,0,0,0,0,0,3.5933,3.6031,3.6033,3.6162,3.6231,3.6318,3.6381,3.6386,3.6465,3.646,3.6499,3.6519,3.6637,3.6681,3.6626,3.6827,3.6787,3.6801,3.6793,3.6807,3.6818,3.6804,3.6605,0,0,0,0,0,3.595,3.6034,3.6115,3.6221,3.6256,3.6313,3.6363,3.6383,3.6457,3.6487,3.6544,3.6616,3.6701,3.6757,3.684,3.6971,3.699,3.7026,3.7036,3.7045,3.7056,3.7128,3.7144,3.6968,3.6968,3.6968,0,0,3.5987,3.6051,3.6101,3.6225,3.6281,3.6367,3.6337,3.643,3.6494,3.6501,3.6616,3.6661,3.6743,3.6868,3.6926,3.6908,3.7109,3.7055,3.7061,3.7068,3.7138,3.7155,3.7169,3.6974,3.6973,3.6972,0,0,3.6097,3.6154,3.6248,3.6305,3.6391,3.6428,3.6451,3.6538,3.6568,3.6684,3.6691,3.6768,3.6915,3.6974,3.7022,3.7155,3.7156,3.7182,3.7236,3.7306,3.7319,3.7332,3.7378,3.7395,3.7193,3.7193,3.7193,0,3.6131,3.6261,3.6296,3.6388,3.6442,3.6453,3.6548,3.6602,3.6711,3.6748,3.6726,3.6911,3.6967,3.7106,3.7138,3.7178,3.7204,3.7171,3.7315,3.7327,3.734,3.7384,3.7402,3.7196,3.7195,3.7195,3.7195,0,3.6299,3.6389,3.6454,3.6559,3.662,3.6714,3.6762,3.6821,3.6836,3.6875,3.6993,3.7062,3.7158,3.7193,3.7209,3.7334,3.732,3.7306,3.7267,3.7358,3.7401,3.7419,3.7199,3.7198,3.7197,3.7197,0,0,3.642,3.6542,3.6566,3.6613,3.6709,3.6779,3.6873,3.6968,3.7016,3.7091,3.7171,3.7295,3.7283,3.7339,3.7361,3.7422,3.7522,3.7401,3.7404,3.742,3.7664,3.7673,3.7692,3.7524,3.7527,3.753,3.7656,0,3.6539,3.6706,3.674,3.6885,3.6968,3.698,3.7062,3.7129,3.7169,3.7245,3.7289,3.7376,3.7354,3.7387,3.7448,3.7497,3.7571,3.7489,3.7598,3.7601,3.7575,3.7715,3.7724,3.784,3.7674,3.7676,3.7679,0,3.6701,3.678,3.6932,3.7017,3.7053,3.7126,3.7215,3.7288,3.7365,3.739,3.7452,3.7468,3.7566,3.7523,3.7658,3.7601,3.7648,3.7679,3.7684,3.7694,3.7644,3.7728,3.7878,3.7895,3.7705,3.7703,3.7701,0,3.6773,3.6917,3.7026,3.7067,3.7168,3.7219,3.7264,3.7338,3.7393,3.7471,3.7507,3.7596,3.7644,3.7713,3.7753,3.7717,3.7885,3.7845,3.7908,3.7907,3.7941,3.7938,3.81,3.7973,3.7973,3.7973,3.7972,0,3.6902,3.6995,3.706,3.7127,3.7231,3.727,3.7372,3.7416,3.7482,3.7558,3.7575,3.7646,3.7694,3.7772,3.7804,3.7911,3.7933,3.7955,3.7963,3.7953,3.795,3.7984,3.7976,3.7977,3.7976,3.7975,3.7975,0,3.6999,3.7046,3.7167,3.7253,3.7277,3.735,3.7424,3.749,3.753,3.7626,3.7651,3.7713,3.7806,3.7853,3.7969,3.799,3.811,3.8113,3.8084,3.8087,3.8146,3.814,3.8334,3.8362,3.8218,3.8219,3.822,0,3.7078,3.7149,3.7243,3.7295,3.7341,3.7425,3.7481,3.7522,3.758,3.7673,3.7727,3.7821,3.7898,3.8046,3.8102,3.819,3.8195,3.8257,3.8208,3.8197,3.8195,3.8189,3.8196,3.8265,3.8266,3.8268,3.8268,0,3.7212,3.7232,3.7312,3.74,3.7467,3.7538,3.7609,3.7651,3.7703,3.7767,3.7862,3.7922,3.804,3.8132,3.8225,3.8271,3.8279,3.8284,3.8303,3.8293,3.8273,3.8284,3.8107,3.8279,3.8278,3.8277,3.8276,3.8276,3.7302,3.7366,3.7442,3.753,3.7588,3.7653,3.7719,3.7768,3.7847,3.7946,3.7966,3.8067,3.8142,3.8267,3.8317,3.8396,3.8383,3.841,3.8417,3.8423,3.8425,3.8261,3.8413,3.8413,3.8413,3.8413,3.8413,0,3.7436,3.7486,3.7567,3.7665,3.7735,3.7736,3.7814,3.7872,3.796,3.803,3.8105,3.8214,3.8305,3.8368,3.8459,3.8511,3.8516,3.8533,3.8529,3.854,3.8433,3.8407,3.8527,3.8527,3.8527,3.8527,3.8527,3.8527,3.7514,3.7622,3.7651,3.7788,3.7837,3.7935,3.798,3.804,3.8096,3.8217,3.8292,3.8333,3.84,3.8497,3.8579,3.8596,3.8628,3.8645,3.8661,3.856,3.8547,3.8536,3.8511,3.8652,3.8652,3.8762,3.8763,3.8763]}]]